This demonstration page uses our WeatherBlox Daily Observations layout. Learn more.

Left ArrowRight Arrow

39.95238, -75.16362

Hourly Observations for April 7, 2022

Temp ( °F °C ) Dew Point ( °F °C ) Humidity (%) Winds ( mph kmh ) Pressure ( in mb ) Visibility ( mi km ) Precip ( " mm )
12:32 am 00:32 Cloudy 51 10.6 47 8.3 86 86 ESE 6 9 29.91 1013 8 13 0.00 0.00
12:54 am 00:54 Cloudy 51 10.6 47 8.3 86 86 E 8 13 29.89 1012 8 13 0.00 0.00
1:51 am 01:51 Cloudy 50 10 46 8 88 88 E 9 15 29.89 1012 10 16 0.00 0.00
1:54 am 01:54 Cloudy 50 10 46 7.8 86 86 E 7 11 29.89 1012 10 16 0.00 0.00
2:54 am 02:54 Cloudy 50 10 46 7.8 86 86 ESE 14 22 29.85 1011 10 16 0.00 0.00
3:54 am 03:54 Cloudy 49 9.4 45 7.2 86 86 E 15 24 29.83 1010 10 16 0.00 0.00
4:26 am 04:26 Cloudy 48 8.9 45 7.2 89 89 E 15 24 29.80 1009 10 16 0.00 0.00
4:40 am 04:40 Cloudy 48 8.9 45 7.2 89 89 E 14 22 29.80 1009 7 11 0.00 0.00
4:54 am 04:54 Cloudy 48 8.9 45 7.2 89 89 E 16 26 29.79 1009 7 11 0.00 0.00
5:11 am 05:11 Cloudy with Mist and Fog 48 8.9 45 7.2 89 89 E 10 17 29.78 1009 5 8 0.00 0.00
5:54 am 05:54 Cloudy with Mist and Fog 48 8.9 46 7.8 93 93 E 7 11 29.79 1009 5 8 0.00 0.00
6:15 am 06:15 Cloudy with Drizzle 48 8.9 46 7.8 93 93 E 8 13 29.79 1009 3 4 0.00 0.00
6:54 am 06:54 Cloudy with Drizzle 48 8.9 46 7.8 93 93 E 9 15 29.78 1009 2 3 0.00 0.00
7:32 am 07:32 Cloudy with Drizzle 48 8.9 46 7.8 93 93 ESE 9 15 29.81 1010 2 3 0.00 0.00
7:54 am 07:54 Cloudy with Drizzle 48 8.9 46 7.8 93 93 E 10 17 29.80 1009 2 3 0.01 0.25
8:28 am 08:28 Cloudy with Light Rain 48 8.9 46 7.8 93 93 E 13 20 29.79 1009 2 3 0.00 0.00
8:36 am 08:36 Cloudy with Light Rain 49 9.4 46 7.8 90 90 E 12 19 29.79 1009 3 5 0.00 0.00
8:54 am 08:54 Cloudy with Light Rain 48 8.9 46 7.8 93 93 E 14 22 29.77 1008 4 6 0.00 0.00
9:15 am 09:15 Cloudy with Light Rain 48 8.9 46 7.8 93 93 E 13 20 29.77 1008 2 3 0.00 0.00
9:24 am 09:24 Cloudy with Nearby Thunderstorms 48 8.9 46 7.8 93 93 ENE 9 15 29.79 1009 2 3 0.00 0.00
9:45 am 09:45 Cloudy with Nearby Thunderstorms 48 8.9 46 7.8 93 93 NNE 12 19 29.79 1009 3 4 0.05 1.27
9:54 am 09:54 Cloudy with Nearby Thunderstorms 49 9.4 46 7.8 90 90 N 10 17 29.79 1009 3 4 0.05 1.27
9:58 am 09:58 Cloudy with Nearby Thunderstorms 49 9.4 46 7.8 90 90 NNE 14 22 29.77 1008 2 3 0.00 0.00
10:17 am 10:17 Cloudy with Light Rain 48 8.9 46 7.8 93 93 ENE 14 22 29.76 1008 2 3 0.14 3.56
10:31 am 10:31 Cloudy with Heavy Rain 48 8.9 46 7.8 93 93 ENE 14 22 29.76 1008 2 3 0.21 5.33
10:44 am 10:44 Cloudy with Rain 49 9.4 46 7.8 90 90 ENE 13 20 29.75 1007 3 4 0.26 6.60
10:47 am 10:47 Cloudy with Light Rain 49 9.4 46 7.8 90 90 ENE 15 24 29.74 1007 3 5 0.27 6.86
10:54 am 10:54 Cloudy with Light Rain 49 9.4 47 8.3 93 93 ENE 14 22 29.74 1007 4 6 0.27 6.86
11:18 am 11:18 Cloudy with Light Rain 50 10 47 8.3 89 89 ENE 16 26 29.72 1006 5 8 0.03 0.76
11:46 am 11:46 Cloudy with Light Rain 50 10 46 7.8 86 86 ENE 16 26 29.70 1006 7 11 0.06 1.52
11:54 am 11:54 Cloudy with Light Rain 50 10 46 7.8 86 86 ENE 14 22 29.69 1005 7 11 0.06 1.52
12:29 pm 12:29 Cloudy with Light Rain 50 10 47 8.3 89 89 E 15 24 29.67 1005 4 6 0.04 1.02
12:54 pm 12:54 Cloudy with Light Rain 50 10 47 8.3 89 89 ENE 13 20 29.65 1004 4 6 0.06 1.52
1:07 pm 13:07 Cloudy with Drizzle 50 10 48 8.9 93 93 E 12 19 29.66 1004 3 4 0.00 0.00
1:14 pm 13:14 Cloudy with Light Rain 51 10.6 48 8.9 89 89 E 12 19 29.65 1004 2 3 0.00 0.00
1:42 pm 13:42 Cloudy with Light Rain 51 10.6 49 9.4 92 92 E 13 20 29.64 1004 3 4 0.04 1.02
1:54 pm 13:54 Cloudy with Light Rain 52 11.1 49 9.4 89 89 E 12 19 29.63 1003 3 4 0.04 1.02
2:09 pm 14:09 Cloudy with Light Rain 52 11.1 50 10 93 93 E 12 19 29.63 1003 2 2 0.04 1.02
2:50 pm 14:50 Cloudy with Light Rain 54 12 50 10 88 88 ENE 8 13 29.61 1003 2 2 0.16 4.06
2:54 pm 14:54 Cloudy with Light Rain 53 11.7 51 10.6 93 93 ENE 8 13 29.61 1003 2 2 0.17 4.32
3:54 pm 15:54 Cloudy with Light Rain 54 12.2 52 11.1 93 93 ENE 8 13 29.57 1001 2 3 0.05 1.27
4:10 pm 16:10 Cloudy with Light Rain 56 13.3 53 11.7 90 90 E 9 15 29.56 1001 2 3 0.02 0.51
4:18 pm 16:18 Cloudy with Light Rain 56 13.3 53 11.7 90 90 E 8 13 29.56 1001 4 6 0.02 0.51
4:26 pm 16:26 Cloudy 56 13.3 54 12.2 93 93 E 5 7 29.56 1001 7 11 0.02 0.51
4:54 pm 16:54 Cloudy with Mist and Fog 57 13.9 53 11.7 87 87 E 13 20 29.53 1000 5 8 0.03 0.76
5:00 pm 17:00 Cloudy with Mist and Fog 57 13.9 54 12.2 90 90 E 13 20 29.53 1000 3 5 0.00 0.00
5:50 pm 17:50 Cloudy with Mist and Fog 57 14 55 13 94 94 ESE 13 20 29.51 999 6 10 0.00 0.00
5:54 pm 17:54 Cloudy with Mist and Fog 58 14.4 56 13.3 93 93 ESE 13 20 29.51 999 5 8 0.00 0.00
6:19 pm 18:19 Cloudy with Mist and Fog 59 15 56 13.3 90 90 ESE 9 15 29.50 999 5 8 0.00 0.00
6:45 pm 18:45 Cloudy with Mist and Fog 60 15.6 58 14.4 93 93 Calm 29.49 999 3 4 0.00 0.00
6:54 pm 18:54 Cloudy with Nearby Thunderstorms 60 15.6 58 14.4 93 93 SE 3 6 29.47 998 3 4 0.00 0.00
7:06 pm 19:06 Cloudy with Thunderstorms 61 16.1 59 15 93 93 S 6 9 29.48 998 2 3 0.01 0.25
7:12 pm 19:12 Cloudy with Thunderstorms 61 16.1 58 14.4 90 90 S 7 11 29.48 998 2 2 0.07 1.78
7:30 pm 19:30 Cloudy with Strong Thunderstorms 61 16.1 59 15 93 93 WNW 14 22 29.51 999 3 4 0.24 6.10
7:41 pm 19:41 Cloudy with Thunderstorms 56 13.3 53 11.7 90 90 NW 21 33 29.52 1000 2 3 0.29 7.37
7:50 pm 19:50 Cloudy with Thunderstorms 54 12 50 10 88 88 NNW 21 33 29.51 999 5 8 0.33 8.38
7:54 pm 19:54 Cloudy with Thunderstorms 54 12.2 50 10 87 87 NW 16 26 29.52 1000 7 11 0.34 8.64
8:00 pm 20:00 Windy with Storms Likely 53 11.7 50 10 89 89 NW 20 31 29.53 1000 7 11 0.00 0.00
8:21 pm 20:21 Cloudy with Light Rain 53 11.7 49 9.4 86 86 NNW 10 17 29.53 1000 10 16 0.02 0.51
8:39 pm 20:39 Cloudy with Light Rain 53 11.7 49 9.4 86 86 WNW 8 13 29.55 1001 3 4 0.03 0.76
8:54 pm 20:54 Cloudy with Thunderstorms 53 11.7 49 9.4 86 86 W 9 15 29.57 1001 3 5 0.06 1.52
9:13 pm 21:13 Cloudy with Strong Thunderstorms 52 11.1 49 9.4 89 89 NW 12 19 29.56 1001 3 5 0.05 1.27
9:27 pm 21:27 Cloudy with Thunderstorms 52 11.1 49 9.4 89 89 W 8 13 29.59 1002 5 8 0.09 2.29
9:50 pm 21:50 Cloudy with Light Rain 52 11 48 9 88 88 NW 8 13 29.55 1001 7 11 0.10 2.54
9:54 pm 21:54 Cloudy with Light Rain 52 11.1 48 8.9 86 86 NNW 10 17 29.54 1001 7 11 0.10 2.54
10:10 pm 22:10 Cloudy with Light Rain 52 11.1 49 9.4 89 89 WNW 7 11 29.56 1001 3 5 0.08 2.03
10:18 pm 22:18 Cloudy with Light Rain 52 11.1 48 8.9 86 86 NW 10 17 29.55 1001 5 8 0.08 2.03
10:54 pm 22:54 Cloudy with Light Rain 52 11.1 48 8.9 86 86 W 9 15 29.56 1001 5 8 0.09 2.29
11:01 pm 23:01 Cloudy with Light Rain 52 11.1 48 8.9 86 86 NW 9 15 29.55 1001 3 5 0.00 0.00
11:12 pm 23:12 Cloudy with Light Rain 51 10.6 48 8.9 89 89 NW 12 19 29.53 1000 6 10 0.01 0.25
11:20 pm 23:20 Cloudy with Light Rain 51 10.6 48 8.9 89 89 NW 7 11 29.54 1000 8 13 0.01 0.25
11:33 pm 23:33 Cloudy with Light Rain 51 10.6 48 8.9 89 89 VRB 3 6 29.54 1000 7 11 0.04 1.02
11:54 pm 23:54 Cloudy with Light Rain 51 10.6 47 8.3 86 86 WNW 5 7 29.54 1000 9 14 0.05 1.27

Powered by AerisWeather